Overview Statistics Trail Chart Weather Telemetry Raw packets
 

This is the latest recevied weather packets stored in our database for station/object N4DWK. If no packets are shown the sender has not sent any weather packets the latest 10 day(s).

<< 70 71 72 73 74 75 76 >>
Time Temp. Humidity Pressure Rain* Wind** Luminosity Snow
1788117006 32.22° C 64% 1019.9 hPa 0 mm - 550 W/m² -
1788116704 32.22° C 63% 1020 hPa 0 mm - 543 W/m² -
1788116405 32.22° C 66% 1020.1 hPa 0 mm - 555 W/m² -
1788116104 31.67° C 67% 1020.1 hPa 0 mm - 580 W/m² -
1788115805 31.67° C 66% 1020.2 hPa 0 mm - 601 W/m² -
1788115505 31.67° C 67% 1020.3 hPa 0 mm - 601 W/m² -
1788115205 31.67° C 66% 1020.3 hPa 0 mm - 573 W/m² -
1788114909 31.67° C 65% 1020.4 hPa 0 mm - 76 W/m² -
1788114607 32.22° C 65% 1020.5 hPa 0 mm - 585 W/m² -
1788114314 31.67° C 65% 1020.6 hPa 0 mm - 584 W/m² -
1788114005 31.67° C 66% 1020.7 hPa 0 mm - 606 W/m² -
1788113704 31.67° C 68% 1020.8 hPa 0 mm - 615 W/m² -
1788113405 31.67° C 68% 1020.9 hPa 0 mm - 621 W/m² -
1788113104 30.56° C 69% 1021 hPa 0 mm - 610 W/m² -
1788112804 31.11° C 67% 1021 hPa 0 mm - 601 W/m² -
1788112504 31.11° C 68% 1021.1 hPa 0 mm - 603 W/m² -
1788112205 30.56° C 70% 1021.2 hPa 0 mm - 545 W/m² -
1788111905 30° C 70% 1021.2 hPa 0 mm - 605 W/m² -
1788111606 30° C 71% 1021.2 hPa 0 mm - 592 W/m² -
1788111305 30.56° C 69% 1021.3 hPa 0 mm - 102 W/m² -
1788111005 30.56° C 70% 1021.3 hPa 0 mm - 636 W/m² -
1788110705 30.56° C 69% 1021.4 hPa 0 mm - 606 W/m² -
1788110405 30° C 73% 1021.5 hPa 0 mm - 626 W/m² -
1788110121 29.44° C 73% 1021.5 hPa 0 mm - 626 W/m² -
1788109812 29.44° C 70% 1021.5 hPa 0 mm - 95 W/m² -

* Rain latest hour (hover to see other rain measurements)
** Current wind speed in m/s (hover to see current wind gust speed)